Regional Weather Roundup
Issued by NWS

Home | Current Version | Previous Version | Graphics & Text | Print | Product List | Glossary On
Versions: 1 2 3 4 5 6 7 8 9 10 11 12 13 14 15 16 17 18 19 20 21 22 23 24 25 26 27 28 29 30 31 32 33 34 35 36 37 38 39 40 41 42 43 44 45 46 47 48 49 50
000
ASUS45 KABQ 271310
RWRNM
NEW MEXICO REGIONAL WEATHER ROUNDUP
NATIONAL WEATHER SERVICE ALBUQUERQUE NM
700 AM MDT THU APR 27 2017

NOTE: "FAIR" MEANS FEW OR NO CLOUDS BELOW 12,000 FEET AGL WITH NO
       SIGNIFICANT WEATHER OR OBSTRUCTIONS TO VISION.

      THIS PRODUCT IS RELEASED AS TWO VERSIONS.  ONE VERSION NEAR
      THE TOP OF THE HOUR CONTAINING PRELIMINARY DATA FROM ALBUQUERQUE
      AND OTHER STATIONS.  A FINAL VERSION WITH ADDITIONAL DATA IS
      ISSUED ABOUT 10 MINUTES AFTER THE HOUR.

NMZ501-503-504-510>518-271400-
NORTHWEST PLATEAU/NORTHCENTRAL MOUNTAINS

CITY           SKY/WX    TMP DP  RH WIND       PRES   REMARKS
FARMINGTON     LGT RAIN  43  41  93 E6        29.72S
LOS ALAMOS     LGT RAIN  43  34  70 W16G31    29.75R
SANTA FE       CLOUDY    48  33  56 W9        29.72S
TAOS             N/A     36  27  69 SE8       29.74F WCI  29
ANGEL FIRE     SNOW      32  31  97 CALM      29.76R VSB 1/4

$$
NMZ402-403-502-505>509-271400-
WESTCENTRAL MOUNTAINS/SOUTHWEST MOUNTAINS

CITY           SKY/WX    TMP DP  RH WIND       PRES   REMARKS
GALLUP         CLOUDY    49  25  39 SW15      29.78S
GRANTS         FAIR      51  23  33 W20G35    29.78R
SILVER CITY    FAIR      54  22  28 NW14      29.85R

$$
NMZ407-409-411-412-271400-
SOUTHERN DESERTS

CITY           SKY/WX    TMP DP  RH WIND       PRES   REMARKS
DEMING         FAIR      54  23  30 W9        29.80S
LAS CRUCES     FAIR      56  22  27 SW7       29.80S
HOLLOMAN AFB   FAIR      55  22  27 SE6       29.77F
ALAMOGORDO     FAIR      55  27  33 S8        29.75F
T OR C         FAIR      51  25  36 E8        29.74F

$$
NMZ519>523-271400-
CENTRAL VALLEYS/CENTRAL HIGHLANDS

CITY           SKY/WX    TMP DP  RH WIND       PRES   REMARKS
ALBUQUERQUE    FAIR      56  25  30 SW7       29.73S
DOUBLE EAGLE   MOCLDY    46  30  53 N5        29.74S
MORIARTY ARPT  FAIR      49  30  49 W5        29.75S
CLINES CORNERS FAIR      45  25  45 W10       29.77R
BELEN          FAIR      50  23  33 SW7       29.73R
SOCORRO        FAIR      58  22  25 SW9       29.73S

$$
NMZ524>526-539-540-271400-
SOUTHCENTRAL MOUNTAINS

CITY           SKY/WX    TMP DP  RH WIND       PRES   REMARKS
RUIDOSO        CLOUDY    54  19  26 SW20G26   29.83R

$$
NMZ527>531-271400-
NORTHEAST HIGHLANDS/NORTHEAST PLAINS

CITY           SKY/WX    TMP DP  RH WIND       PRES   REMARKS
LAS VEGAS      FAIR      46  30  53 W23G33    29.68F
RATON          FAIR      38  30  73 S8        29.64F WCI  32
CLAYTON        CLOUDY    42  35  76 SW7       29.63F

$$
NMZ532>537-271400-
EASTCENTRAL PLAINS

CITY           SKY/WX    TMP DP  RH WIND       PRES   REMARKS
SANTA ROSA     FAIR      47  26  44 CALM      29.67R
TUCUMCARI      FAIR      51  39  63 SW7       29.61S
CANNON AFB     FAIR      43  38  83 SE6       29.69R
CLOVIS AIRPORT FAIR      43  32  65 SE9       29.68S

$$
NMZ028-029-538-271400-
SOUTHEAST PLAINS

CITY           SKY/WX    TMP DP  RH WIND       PRES   REMARKS
ROSWELL        FAIR      47  26  44 SE6       29.68S
ARTESIA        FAIR      59  25  27 SW17      29.69R
CARLSBAD       FAIR      66  25  21 SW12      29.68R
HOBBS          CLEAR     48  32  53 S6        29.72R


$$



USA.gov is the U.S. government's official web portal to all federal, state and local government web resources and services.